Location: Rounton
(54.4000°N, 1.3500°W)
Time: 17:15:17
(UTC+01:00)

Tiros 1 despin weight - Visible Passes

Search period start: 10 October 2024 00:00
Search period end: 20 October 2024 00:00
Orbit: 572 x 614 km, 48.2° (Epoch: 10 October)

Date Brightness Start Highest point End Pass type
(mag) Time Alt. Az. Time Alt. Az. Time Alt. Az.
10 Oct ? 19:09:25 10° SSW 19:12:54 24° SSE 19:16:08 11° ESE visible
10 Oct ? 20:49:14 10° WSW 20:52:40 35° SSW 20:52:40 35° SSW visible
11 Oct ? 19:17:21 10° SW 19:21:05 29° SSE 19:24:07 14° ESE visible
11 Oct ? 20:57:29 10° WSW 21:00:39 33° SSW 21:00:39 33° SSW visible
12 Oct ? 19:25:23 10° SW 19:29:17 33° S 19:32:04 17° ESE visible
12 Oct ? 21:05:46 10° WSW 21:08:36 29° SW 21:08:36 29° SW visible
13 Oct ? 19:33:30 10° WSW 19:37:28 36° S 19:39:58 19° ESE visible
13 Oct ? 21:14:04 10° WSW 21:16:30 25° SW 21:16:30 25° SW visible
14 Oct ? 19:41:39 10° WSW 19:45:37 36° S 19:47:51 22° SE visible
14 Oct ? 21:22:25 10° WSW 21:24:22 20° SW 21:24:22 20° SW visible
15 Oct ? 19:49:50 10° WSW 19:53:45 34° S 19:55:42 23° SE visible
15 Oct ? 21:30:52 10° WSW 21:32:14 15° WSW 21:32:14 15° WSW visible
16 Oct ? 19:58:01 10° WSW 20:01:50 31° SSW 20:03:34 23° SSE visible
16 Oct ? 21:39:34 10° WSW 21:40:05 12° WSW 21:40:05 12° WSW visible
17 Oct ? 20:06:16 10° WSW 20:09:51 26° SSW 20:11:26 21° SSE visible
18 Oct ? 18:33:36 10° WSW 18:37:33 35° S 18:41:30 10° ESE visible
18 Oct ? 20:14:35 10° WSW 20:17:47 20° SSW 20:19:20 17° S visible
19 Oct ? 18:41:42 10° WSW 18:45:31 31° SSW 18:49:23 10° SE visible
19 Oct ? 20:23:06 10° WSW 20:25:38 15° SSW 20:27:17 13° S visible
